Content
SEND FEEDBACK

Daily
Averages
Monthly
Summary
Canada

VANCOUVER, BRITISH COLUMBIA


Home > North America > Canada > British Columbia
Elevation: 7 feet     Latitude: 49 11N     Longitude: 123 10W

WEATHER
 
SELECT A DAY
Number of Records: 249,253;   Date Range: 5/15/97 - 7/23/14
 
SHARE

PRINT THIS DATA

[ ← Previous Day ]
WEATHER ALMANAC - JULY 24, 2013
[ Next Day → ]
[ °C ]   °F
Weather ElementAverageHighLow
Temperature62.7 °F73.4 °F (4:35 pm)55.4 °F (3:55 am)
Dewpoint54.4 °F59 °F (12:15 pm)51.8 °F (12:35 am)
Humidity75.1 %94 % (4:35 am)53 % (5:35 pm)
Barometer30.01 in30.05 in (11:15 am)29.98 in (6:15 pm)
Wind Speed4 mph6.9 mph (1:35 am)
Weather ElementAverage
Visibility9.2 mi
Wind DirectionSSE (163.1 °)

Weather ElementTotal
Precipitation---
Heating Degree Days0.6 (Base 65)
Growing Degree Days14.4 (Base 50)
Averaged from 71 records on July 24, 2013
WEATHER CONDITIONS BREAKOUT
WIND DIRECTION BREAKOUT
WEATHER BY HOUR - JULY 24, 2013
[ °C ]   °F
Local TimeTemperatureDewpointHumidityBarometerVisibilityWind DirectionWind SpeedGust SpeedPrecipitationEventsConditions
12:35 AM59.0 °F51.8 °F77 %29.99 in10.0 miCalmClear
12:55 AM59.0 °F51.8 °F77 %29.99 in10.0 miSouth (170°)3.5 mphClear
1:15 AM59.0 °F51.8 °F77 %29.99 in10.0 miSouth (170°)4.6 mphClear
1:35 AM59.0 °F53.6 °F82 %29.99 in10.0 miSouth (180°)6.9 mphClear
1:55 AM57.2 °F51.8 °F82 %29.99 in10.0 miSSE (160°)3.5 mphClear
2:15 AM57.2 °F51.8 °F82 %29.99 in10.0 miSouth (170°)3.5 mphClear
2:35 AM57.2 °F51.8 °F82 %30.00 in10.0 miSSW (200°)6.9 mphClear
2:55 AM57.2 °F51.8 °F82 %30.00 in10.0 miCalmClear
3:15 AM57.2 °F51.8 °F82 %30.00 in10.0 miCalmClear
3:35 AM57.2 °F51.8 °F82 %30.00 in10.0 miSouth (170°)4.6 mphClear
3:55 AM55.4 °F51.8 °F88 %30.01 in10.0 miSSE (160°)3.5 mphClear
4:15 AM55.4 °F51.8 °F88 %30.01 in10.0 miSouth (170°)4.6 mphClear
4:35 AM55.4 °F53.6 °F94 %30.01 in10.0 miSouth (170°)3.5 mphClear
4:55 AM55.4 °F53.6 °F94 %30.01 in9.0 miSouth (180°)3.5 mphClear
5:15 AM55.4 °F51.8 °F88 %30.02 in9.0 miCalmClear
5:35 AM55.4 °F51.8 °F88 %30.02 in9.0 miCalmClear
5:55 AM55.4 °F51.8 °F88 %30.02 in7.0 miSSE (160°)4.6 mphClear
6:15 AM55.4 °F51.8 °F88 %30.03 in8.0 miSSE (160°)3.5 mphClear
6:35 AM55.4 °F51.8 °F88 %30.03 in7.0 miSSE (160°)3.5 mphClear
6:55 AM55.4 °F53.6 °F94 %30.03 in8.0 miSouth (170°)5.8 mphClear
7:15 AM57.2 °F53.6 °F88 %30.04 in8.0 miSouth (170°)3.5 mphClear
7:35 AM57.2 °F53.6 °F88 %30.04 in8.0 miCalmClear
7:55 AM59.0 °F53.6 °F82 %30.04 in9.0 miSouth (180°)4.6 mphClear
8:15 AM59.0 °F53.6 °F82 %30.04 in8.0 miSouth (190°)6.9 mphClear
8:35 AM59.0 °F53.6 °F82 %30.04 in8.0 miSouth (190°)6.9 mphClear
8:55 AM59.0 °F53.6 °F82 %30.04 in9.0 miSouth (180°)4.6 mphClear
9:15 AM60.8 °F53.6 °F77 %30.04 in10.0 miSouth (190°)6.9 mphClear
9:35 AM60.8 °F53.6 °F77 %30.04 in8.0 miSouth (190°)6.9 mphClear
9:55 AM62.6 °F53.6 °F72 %30.04 in10.0 miSouth (190°)6.9 mphClear
10:15 AM62.6 °F53.6 °F72 %30.04 in8.0 miSouth (190°)5.8 mphClear
10:35 AM66.2 °F55.4 °F68 %30.04 in9.0 miSSW (210°)3.5 mphClear
10:55 AM64.4 °F55.4 °F73 %30.04 in9.0 miCalmClear
11:15 AM64.4 °F55.4 °F73 %30.05 in10.0 miCalmClear
11:35 AM66.2 °F55.4 °F68 %30.04 in9.0 miCalmClear
11:55 AM68.0 °F57.2 °F68 %30.04 in9.0 miNorth (360°)3.5 mphClear
12:15 PM68.0 °F59.0 °F73 %30.04 in9.0 miNorth (350°)4.6 mphClear
12:35 PM66.2 °F57.2 °F73 %30.04 in9.0 miNorth (350°)4.6 mphClear
12:55 PM68.0 °F59.0 °F73 %30.04 in9.0 miNorth (350°)4.6 mphClear
1:15 PM68.0 °F57.2 °F68 %30.04 in9.0 miNorth (360°)4.6 mphClear
1:35 PM68.0 °F57.2 °F68 %30.03 in9.0 miNorth (10°)3.5 mphClear
1:55 PM68.0 °F57.2 °F68 %30.03 in8.0 miNorth (10°)4.6 mphClear
2:15 PM69.8 °F59.0 °F68 %30.03 in9.0 miNorth (350°)4.6 mphClear
2:35 PM71.6 °F57.2 °F60 %30.03 in10.0 miSSW (200°)3.5 mphRainLight Rain
2:55 PM71.6 °F57.2 °F60 %30.02 in9.0 miNorth (350°)4.6 mphClear
3:15 PM71.6 °F57.2 °F60 %30.02 in9.0 miCalmClear
3:35 PM69.8 °F59.0 °F68 %30.02 in9.0 miNorth (360°)4.6 mphClear
3:55 PM71.6 °F59.0 °F64 %30.02 in9.0 miNorth (360°)4.6 mphClear
4:15 PM71.6 °F59.0 °F64 %30.01 in9.0 miCalmClear
4:35 PM73.4 °F57.2 °F57 %30.01 in9.0 miSouth (180°)4.6 mphClear
4:55 PM68.0 °F59.0 °F73 %30.00 in9.0 miCalmClear
5:15 PM71.6 °F55.4 °F57 %30.00 in10.0 miSouth (180°)5.8 mphClear
5:35 PM73.4 °F55.4 °F53 %30.00 in9.0 miSouth (180°)5.8 mphClear
5:55 PM73.4 °F55.4 °F53 %29.99 in10.0 miSouth (180°)6.9 mphClear
6:15 PM71.6 °F55.4 °F57 %29.98 in9.0 miSouth (180°)5.8 mphClear
6:35 PM71.6 °F55.4 °F57 %29.98 in10.0 miSouth (170°)3.5 mphClear
6:55 PM69.8 °F55.4 °F60 %29.99 in9.0 miSouth (180°)4.6 mphClear
7:15 PM69.8 °F55.4 °F60 %29.98 in9.0 miSouth (180°)6.9 mphClear
7:35 PM68.0 °F55.4 °F64 %29.98 in9.0 miSouth (170°)5.8 mphClear
7:55 PM66.2 °F53.6 °F64 %29.99 in10.0 miSE (140°)4.6 mphClear
8:15 PM66.2 °F53.6 °F64 %29.99 in9.0 miSSE (150°)4.6 mphClear
8:35 PM64.4 °F53.6 °F68 %29.99 in9.0 miSSE (160°)3.5 mphClear
8:55 PM60.8 °F53.6 °F77 %29.99 in8.0 miSouth (170°)3.5 mphClear
9:15 PM59.0 °F53.6 °F82 %29.99 in8.0 miSSE (160°)4.6 mphClear
9:35 PM59.0 °F51.8 °F77 %29.99 in10.0 miSSE (160°)5.8 mphClear
9:55 PM59.0 °F51.8 °F77 %29.99 in10.0 miSouth (170°)4.6 mphClear
10:15 PM57.2 °F53.6 °F88 %29.99 in10.0 miSouth (180°)6.9 mphClear
10:35 PM57.2 °F53.6 °F88 %30.00 in10.0 miSouth (170°)4.6 mphClear
10:55 PM57.2 °F51.8 °F82 %30.00 in10.0 miSouth (180°)5.8 mphClear
11:15 PM57.2 °F51.8 °F82 %30.00 in9.0 miSouth (170°)3.5 mphClear
11:35 PM57.2 °F53.6 °F88 %30.00 in10.0 miSSE (160°)3.5 mphClear
11:55 PM57.2 °F51.8 °F82 %30.00 in10.0 miSouth (170°)3.5 mphClear
Hourly data recorded from CZBB, located miles away from Vancouver, British Columbia







STORIES FROM OUR PARTNERS